CAL153 RJBB-RCTP

Flight info

Callsign CAL153
Flight time N/A
Altitude 32000
Route OMGOR Y34 HKC Y50 IGMON A1 DRAKE DRAKE1A
Aircraft A333/H-SDE3GHIJ2J3J5M1RVWXY/LB2D1

Departure

Time 2026-05-08 05:16
Airport Kansai International Airport (RJBB)

Arrival

Time N/A
Airport Taiwan Taoyuan International Airport (RCTP)
Time Latitude Longitude Altitude Speed Heading
2026-05-08 05:02 34.43373 135.24554 25 ft 0 kts 321°
2026-05-08 05:09 34.43362 135.24565 26 ft 4 kts 321°
2026-05-08 05:10 34.43341 135.24585 27 ft 4 kts 331°
2026-05-08 05:10 34.43296 135.24582 26 ft 2 kts 50°
2026-05-08 05:10 34.43294 135.24580 27 ft 1 kts 51°
2026-05-08 05:12 34.43296 135.24585 26 ft 1 kts 58°
2026-05-08 05:13 34.43292 135.24622 24 ft 8 kts 110°
2026-05-08 05:13 34.43303 135.24723 25 ft 17 kts 60°
2026-05-08 05:13 34.43384 135.24855 25 ft 20 kts 50°
2026-05-08 05:13 34.43472 135.24987 25 ft 16 kts 52°
2026-05-08 05:14 34.43574 135.25144 24 ft 25 kts 51°
2026-05-08 05:14 34.43683 135.25309 26 ft 25 kts 51°
2026-05-08 05:14 34.43792 135.25473 23 ft 24 kts 45°
2026-05-08 05:14 34.43815 135.25636 24 ft 21 kts 135°
2026-05-08 05:15 34.43709 135.25750 28 ft 19 kts 121°
2026-05-08 05:15 34.43707 135.25853 28 ft 5 kts 122°
2026-05-08 05:15 34.43694 135.25850 31 ft 1 kts 208°
2026-05-08 05:15 34.43665 135.25800 28 ft 25 kts 232°
2026-05-08 05:16 34.43421 135.25435 19 ft 84 kts 231°
2026-05-08 05:16 34.43126 135.24995 19 ft 117 kts 230°
2026-05-08 05:16 34.42522 135.24093 87 ft 152 kts 231°
2026-05-08 05:16 34.41852 135.23125 675 ft 148 kts 232°
2026-05-08 05:17 34.40987 135.21797 1329 ft 154 kts 236°
2026-05-08 05:17 34.40539 135.21108 1746 ft 152 kts 238°
2026-05-08 05:17 34.39945 135.20080 2326 ft 146 kts 241°
2026-05-08 05:17 34.39389 135.19084 2881 ft 143 kts 242°
2026-05-08 05:18 34.38830 135.18093 3358 ft 145 kts 241°
2026-05-08 05:18 34.38233 135.17029 3660 ft 160 kts 240°
2026-05-08 05:18 34.37582 135.15866 3990 ft 174 kts 240°
2026-05-08 05:18 34.36903 135.14540 4207 ft 198 kts 243°
2026-05-08 05:19 34.36146 135.13013 4461 ft 223 kts 243°
2026-05-08 05:19 34.35491 135.11268 4891 ft 237 kts 251°
2026-05-08 05:19 34.34931 135.09358 5584 ft 244 kts 252°
2026-05-08 05:19 34.34365 135.07364 6334 ft 251 kts 251°
2026-05-08 05:20 34.33796 135.05373 7051 ft 255 kts 251°
2026-05-08 05:20 34.33213 135.03349 7925 ft 255 kts 251°
2026-05-08 05:20 34.32624 135.01320 8776 ft 255 kts 250°
2026-05-08 05:20 34.32034 134.99292 9480 ft 255 kts 250°
2026-05-08 05:21 34.31447 134.97279 10168 ft 253 kts 250°
2026-05-08 05:21 34.30775 134.95266 10509 ft 265 kts 244°
2026-05-08 05:21 34.29877 134.93246 10747 ft 279 kts 241°
2026-05-08 05:21 34.28892 134.91174 11032 ft 294 kts 241°
2026-05-08 05:22 34.27845 134.88987 11297 ft 307 kts 241°
2026-05-08 05:22 34.26753 134.86714 11579 ft 319 kts 241°
2026-05-08 05:22 34.25625 134.84353 11972 ft 328 kts 241°
2026-05-08 05:22 34.24472 134.81945 12528 ft 333 kts 241°
2026-05-08 05:23 34.23303 134.79502 13120 ft 338 kts 241°
2026-05-08 05:23 34.22122 134.77030 13676 ft 340 kts 241°
2026-05-08 05:23 34.20936 134.74550 14077 ft 342 kts 241°
2026-05-08 05:23 34.19672 134.72109 14502 ft 342 kts 238°
2026-05-08 05:24 34.18339 134.69726 14916 ft 342 kts 237°
2026-05-08 05:24 34.17009 134.67383 15309 ft 343 kts 237°
2026-05-08 05:24 34.15657 134.65005 15687 ft 344 kts 238°
2026-05-08 05:24 34.14301 134.62620 16052 ft 345 kts 238°
2026-05-08 05:25 34.12937 134.60221 16411 ft 347 kts 238°
2026-05-08 05:25 34.11574 134.57823 16857 ft 346 kts 238°
2026-05-08 05:25 34.10207 134.55420 17240 ft 347 kts 238°
2026-05-08 05:25 34.08847 134.53029 17591 ft 348 kts 238°
2026-05-08 05:26 34.07472 134.50614 17931 ft 349 kts 238°
2026-05-08 05:26 34.06093 134.48192 18239 ft 350 kts 238°
2026-05-08 05:26 34.04711 134.45768 18526 ft 351 kts 238°
2026-05-08 05:26 34.03324 134.43338 18772 ft 353 kts 238°
2026-05-08 05:27 34.01927 134.40901 18965 ft 354 kts 238°
2026-05-08 05:27 34.00520 134.38460 19264 ft 354 kts 237°
2026-05-08 05:27 33.99111 134.36018 19552 ft 355 kts 238°
2026-05-08 05:27 33.97696 134.33563 19759 ft 359 kts 238°
2026-05-08 05:28 33.96265 134.31085 20006 ft 360 kts 238°
2026-05-08 05:28 33.94855 134.28644 20360 ft 358 kts 238°
2026-05-08 05:28 33.93435 134.26188 20632 ft 358 kts 238°
2026-05-08 05:28 33.92004 134.23716 20835 ft 360 kts 238°
2026-05-08 05:29 33.90554 134.21238 21070 ft 362 kts 238°
2026-05-08 05:29 33.89091 134.18762 21334 ft 364 kts 238°
2026-05-08 05:29 33.87615 134.16268 21535 ft 365 kts 237°
2026-05-08 05:29 33.86139 134.13773 21796 ft 365 kts 238°
2026-05-08 05:30 33.84683 134.11311 21984 ft 365 kts 238°
2026-05-08 05:30 33.83209 134.08819 22195 ft 366 kts 238°
2026-05-08 05:30 33.81729 134.06320 22421 ft 367 kts 237°
2026-05-08 05:30 33.80244 134.03813 22729 ft 366 kts 238°
2026-05-08 05:31 33.78769 134.01328 23004 ft 366 kts 238°
2026-05-08 05:31 33.77289 133.98832 23033 ft 367 kts 238°
2026-05-08 05:31 33.75806 133.96324 23222 ft 369 kts 237°
2026-05-08 05:31 33.74316 133.93811 23420 ft 369 kts 237°
2026-05-08 05:32 33.72821 133.91299 23592 ft 370 kts 237°
2026-05-08 05:32 33.71318 133.88782 23679 ft 372 kts 237°
2026-05-08 05:32 33.69821 133.86271 23794 ft 374 kts 238°
2026-05-08 05:32 33.68304 133.83723 23965 ft 375 kts 237°
2026-05-08 05:33 33.66791 133.81181 24165 ft 375 kts 237°
2026-05-08 05:33 33.65272 133.78634 24383 ft 374 kts 237°
2026-05-08 05:33 33.63757 133.76097 24560 ft 374 kts 237°
2026-05-08 05:33 33.62241 133.73562 24708 ft 375 kts 237°
2026-05-08 05:34 33.60714 133.71013 24810 ft 377 kts 237°
2026-05-08 05:34 33.59173 133.68440 24894 ft 380 kts 237°
2026-05-08 05:34 33.57626 133.65863 25051 ft 381 kts 237°
2026-05-08 05:34 33.56073 133.63278 25219 ft 381 kts 237°
2026-05-08 05:35 33.54518 133.60693 25400 ft 381 kts 238°
2026-05-08 05:35 33.52988 133.58150 25605 ft 381 kts 238°
2026-05-08 05:35 33.51435 133.55571 25815 ft 381 kts 238°
2026-05-08 05:35 33.49884 133.52993 25945 ft 382 kts 238°
2026-05-08 05:36 33.48318 133.50391 25999 ft 386 kts 238°
2026-05-08 05:36 33.46745 133.47780 26139 ft 387 kts 238°
2026-05-08 05:36 33.45167 133.45165 26307 ft 388 kts 238°
2026-05-08 05:36 33.43581 133.42540 26475 ft 388 kts 238°
2026-05-08 05:37 33.41993 133.39922 26661 ft 389 kts 237°
2026-05-08 05:37 33.40397 133.37301 26846 ft 389 kts 237°
2026-05-08 05:37 33.38800 133.34685 26981 ft 390 kts 237°
2026-05-08 05:37 33.37211 133.32083 27053 ft 393 kts 237°
2026-05-08 05:38 33.35590 133.29430 27185 ft 394 kts 237°
2026-05-08 05:38 33.33966 133.26774 27360 ft 395 kts 237°
2026-05-08 05:38 33.32343 133.24122 27518 ft 395 kts 237°
2026-05-08 05:38 33.30717 133.21467 27661 ft 396 kts 237°
2026-05-08 05:39 33.29088 133.18809 27765 ft 396 kts 237°
2026-05-08 05:39 33.27457 133.16148 27873 ft 397 kts 237°
2026-05-08 05:39 33.25820 133.13478 27951 ft 399 kts 237°
2026-05-08 05:39 33.24194 133.10828 28066 ft 400 kts 237°
2026-05-08 05:40 33.22545 133.08141 28183 ft 401 kts 237°
2026-05-08 05:40 33.20894 133.05452 28347 ft 401 kts 237°
2026-05-08 05:40 33.19233 133.02751 28495 ft 402 kts 237°
2026-05-08 05:40 33.17573 133.00060 28685 ft 402 kts 237°
2026-05-08 05:41 33.15914 132.97371 28824 ft 402 kts 237°
2026-05-08 05:41 33.12578 132.91961 29060 ft 407 kts 237°
2026-05-08 05:41 33.10902 132.89232 29321 ft 408 kts 237°
2026-05-08 05:42 33.09214 132.86492 29553 ft 410 kts 237°
2026-05-08 05:42 33.07539 132.83787 29818 ft 411 kts 237°
2026-05-08 05:42 33.05846 132.81041 30178 ft 410 kts 238°
2026-05-08 05:42 33.04324 132.78184 30445 ft 407 kts 243°
2026-05-08 05:43 33.03106 132.75151 30853 ft 403 kts 249°
2026-05-08 05:43 33.02233 132.71991 31268 ft 400 kts 255°
2026-05-08 05:43 33.01676 132.68760 31574 ft 399 kts 259°
2026-05-08 05:43 33.01229 132.65488 31812 ft 400 kts 260°
2026-05-08 05:44 33.00834 132.62192 31903 ft 404 kts 260°
2026-05-08 05:44 33.00077 132.55518 31909 ft 406 kts 261°
2026-05-08 05:45 32.99307 132.48859 31914 ft 405 kts 260°
2026-05-08 05:45 32.98391 132.42285 31908 ft 404 kts 255°
2026-05-08 05:46 32.96327 132.36073 31919 ft 405 kts 242°
2026-05-08 05:46 32.93007 132.30607 31912 ft 409 kts 235°
2026-05-08 05:47 32.89354 132.25390 31916 ft 410 kts 234°
2026-05-08 05:47 32.85661 132.20215 31917 ft 410 kts 234°
2026-05-08 05:48 32.82005 132.15049 31916 ft 411 kts 234°
2026-05-08 05:48 32.78330 132.09824 31917 ft 411 kts 234°
2026-05-08 05:49 32.74660 132.04603 31895 ft 412 kts 234°
2026-05-08 05:49 32.70977 131.99371 31911 ft 413 kts 234°
2026-05-08 05:50 32.67284 131.94135 31917 ft 412 kts 234°
2026-05-08 05:50 32.63599 131.88920 31902 ft 412 kts 234°
2026-05-08 05:51 32.59937 131.83742 31911 ft 412 kts 234°
2026-05-08 05:51 32.56243 131.78525 31911 ft 413 kts 234°
2026-05-08 05:52 32.52548 131.73313 31912 ft 413 kts 234°
2026-05-08 05:52 32.48845 131.68097 31908 ft 413 kts 234°
2026-05-08 05:53 32.45140 131.62886 31918 ft 413 kts 234°
2026-05-08 05:53 32.41455 131.57710 31925 ft 413 kts 234°
2026-05-08 05:54 32.37753 131.52514 31925 ft 414 kts 234°
2026-05-08 05:54 32.34021 131.47288 31923 ft 416 kts 233°
2026-05-08 05:55 32.30280 131.42053 31934 ft 417 kts 233°
2026-05-08 05:55 32.26535 131.36819 31927 ft 416 kts 233°
2026-05-08 05:56 32.22801 131.31607 31929 ft 418 kts 233°
2026-05-08 05:56 32.19046 131.26377 31936 ft 417 kts 233°
2026-05-08 05:57 32.15284 131.21143 31941 ft 418 kts 233°
2026-05-08 05:57 32.11519 131.15914 31944 ft 418 kts 233°
2026-05-08 05:58 32.07756 131.10701 31953 ft 417 kts 233°
2026-05-08 05:58 32.03986 131.05475 31960 ft 419 kts 233°
2026-05-08 05:59 32.00208 131.00239 31959 ft 418 kts 233°
2026-05-08 05:59 31.96430 130.95019 31945 ft 418 kts 233°
2026-05-08 06:00 31.92655 130.89809 31974 ft 418 kts 233°
2026-05-08 06:00 31.88895 130.84627 31967 ft 419 kts 233°
2026-05-08 06:01 31.85108 130.79413 31965 ft 418 kts 233°
2026-05-08 06:01 31.81324 130.74209 31969 ft 418 kts 233°
2026-05-08 06:02 31.77540 130.69010 31970 ft 418 kts 233°
2026-05-08 06:02 31.73780 130.63854 31964 ft 418 kts 233°
2026-05-08 06:03 31.69996 130.58666 31932 ft 417 kts 233°
2026-05-08 06:03 31.66389 130.53357 31972 ft 414 kts 235°
2026-05-08 06:04 31.62894 130.47980 31991 ft 413 kts 236°
2026-05-08 06:04 31.59397 130.42608 31996 ft 415 kts 235°
2026-05-08 06:05 31.55865 130.37225 32002 ft 416 kts 235°
2026-05-08 06:05 31.52918 130.32759 32001 ft 416 kts 235°
2026-05-08 06:06 31.48792 130.26517 32005 ft 416 kts 235°
2026-05-08 06:06 31.45836 130.22050 32006 ft 417 kts 235°
2026-05-08 06:07 31.42266 130.16661 32004 ft 418 kts 235°
2026-05-08 06:07 31.38698 130.11283 32013 ft 418 kts 235°
2026-05-08 06:08 31.35133 130.05916 32016 ft 417 kts 235°
2026-05-08 06:08 31.31562 130.00550 32025 ft 418 kts 235°
2026-05-08 06:09 31.28010 129.95217 32009 ft 419 kts 234°
2026-05-08 06:09 31.24434 129.89856 32021 ft 418 kts 234°
2026-05-08 06:10 31.20857 129.84503 32018 ft 417 kts 234°
2026-05-08 06:10 31.17283 129.79159 32027 ft 417 kts 234°
2026-05-08 06:11 31.13697 129.73806 32019 ft 418 kts 234°
2026-05-08 06:11 31.10106 129.68451 32029 ft 418 kts 234°
2026-05-08 06:12 31.06536 129.63137 32034 ft 418 kts 234°
2026-05-08 06:12 31.02944 129.57797 32045 ft 418 kts 234°
2026-05-08 06:13 30.99345 129.52454 32028 ft 419 kts 234°
2026-05-08 06:13 30.95749 129.47121 32032 ft 418 kts 234°
2026-05-08 06:14 30.92144 129.41784 32041 ft 418 kts 234°
2026-05-08 06:14 30.88561 129.36486 32032 ft 418 kts 234°
2026-05-08 06:15 30.84936 129.31131 32050 ft 423 kts 234°
2026-05-08 06:15 30.81277 129.25735 32042 ft 425 kts 234°
2026-05-08 06:16 30.77617 129.20343 32034 ft 424 kts 234°
2026-05-08 06:16 30.74014 129.14908 32034 ft 424 kts 235°
2026-05-08 06:17 30.68655 129.06719 32044 ft 425 kts 235°
2026-05-08 06:17 30.65071 129.01262 32048 ft 425 kts 235°
2026-05-08 06:18 30.61500 128.95841 32047 ft 425 kts 234°
2026-05-08 06:18 30.57906 128.90396 32041 ft 425 kts 234°
2026-05-08 06:19 30.54309 128.84954 32048 ft 426 kts 234°
2026-05-08 06:19 30.50694 128.79491 32050 ft 427 kts 234°
2026-05-08 06:20 30.47068 128.74021 32056 ft 427 kts 234°
2026-05-08 06:20 30.43445 128.68561 32050 ft 427 kts 234°
2026-05-08 06:21 30.39846 128.63147 32057 ft 426 kts 234°
2026-05-08 06:21 30.36207 128.57677 32056 ft 429 kts 234°
2026-05-08 06:22 30.32564 128.52210 32059 ft 429 kts 234°
2026-05-08 06:22 30.28910 128.46734 32054 ft 429 kts 234°
2026-05-08 06:23 30.25285 128.41308 32058 ft 428 kts 234°
2026-05-08 06:23 30.21639 128.35859 32061 ft 428 kts 234°
2026-05-08 06:24 30.17987 128.30408 32061 ft 428 kts 234°
2026-05-08 06:24 30.14337 128.24967 32064 ft 428 kts 234°
2026-05-08 06:25 30.10684 128.19529 32061 ft 428 kts 234°
2026-05-08 06:25 30.07022 128.14086 32070 ft 430 kts 234°
2026-05-08 06:26 30.03363 128.08653 32066 ft 431 kts 234°
2026-05-08 06:26 29.99677 128.03189 32049 ft 432 kts 234°
2026-05-08 06:27 29.95984 127.97723 32069 ft 432 kts 234°
2026-05-08 06:27 29.92274 127.92237 32070 ft 433 kts 234°
2026-05-08 06:28 29.88568 127.86766 32069 ft 433 kts 234°
2026-05-08 06:28 29.84816 127.81367 32049 ft 434 kts 232°
2026-05-08 06:29 29.80888 127.76078 32072 ft 436 kts 231°
2026-05-08 06:29 29.76906 127.70792 32085 ft 436 kts 232°
2026-05-08 06:30 29.72943 127.65509 32072 ft 437 kts 232°
2026-05-08 06:30 29.68996 127.60230 32051 ft 437 kts 232°
2026-05-08 06:31 29.65022 127.54914 32070 ft 438 kts 232°
2026-05-08 06:31 29.61045 127.49601 32076 ft 438 kts 232°
2026-05-08 06:32 29.57107 127.44242 32067 ft 438 kts 233°
2026-05-08 06:32 29.53314 127.38759 32060 ft 438 kts 234°
2026-05-08 06:33 29.49564 127.33273 32074 ft 440 kts 234°
2026-05-08 06:33 29.45765 127.27751 32075 ft 440 kts 234°
2026-05-08 06:34 29.41955 127.22248 32082 ft 440 kts 234°
2026-05-08 06:34 29.38154 127.16772 32035 ft 440 kts 234°
2026-05-08 06:35 29.34328 127.11266 32075 ft 443 kts 234°
2026-05-08 06:35 29.30480 127.05735 32074 ft 443 kts 234°
2026-05-08 06:36 29.26635 127.00216 32074 ft 443 kts 234°
2026-05-08 06:36 29.22809 126.94734 32078 ft 443 kts 234°
2026-05-08 06:37 29.18960 126.89223 32084 ft 444 kts 234°
2026-05-08 06:37 29.15092 126.83691 32084 ft 445 kts 234°
2026-05-08 06:38 29.11213 126.78155 32074 ft 445 kts 234°
2026-05-08 06:38 29.07333 126.72623 32080 ft 445 kts 234°
2026-05-08 06:39 29.03467 126.67119 32078 ft 447 kts 234°
2026-05-08 06:39 28.99562 126.61563 32080 ft 448 kts 234°
2026-05-08 06:40 28.95628 126.56031 32078 ft 449 kts 234°
2026-05-08 06:40 28.91602 126.50579 32082 ft 449 kts 233°
2026-05-08 06:41 28.87578 126.45186 32072 ft 449 kts 233°
2026-05-08 06:41 28.83524 126.39743 32078 ft 450 kts 233°
2026-05-08 06:42 28.79467 126.34289 32077 ft 450 kts 233°
2026-05-08 06:42 28.75415 126.28845 32078 ft 450 kts 233°
2026-05-08 06:43 28.71355 126.23397 32080 ft 451 kts 234°
2026-05-08 06:43 28.67282 126.17937 32078 ft 453 kts 234°
2026-05-08 06:44 28.63211 126.12467 32075 ft 452 kts 234°
2026-05-08 06:44 28.59238 126.06911 32070 ft 452 kts 235°
2026-05-08 06:45 28.55306 126.01327 32073 ft 452 kts 235°
2026-05-08 06:45 28.51397 125.95792 32075 ft 452 kts 235°
2026-05-08 06:46 28.47449 125.90231 32074 ft 452 kts 235°
2026-05-08 06:46 28.43492 125.84672 32075 ft 452 kts 235°
2026-05-08 06:47 28.39537 125.79124 32056 ft 452 kts 235°
2026-05-08 06:47 28.35565 125.73559 32078 ft 453 kts 235°
2026-05-08 06:48 28.31599 125.68008 32076 ft 452 kts 235°
2026-05-08 06:48 28.27633 125.62466 32073 ft 452 kts 235°
2026-05-08 06:49 28.23665 125.56927 32071 ft 452 kts 235°
2026-05-08 06:49 28.19720 125.51427 32081 ft 453 kts 235°
2026-05-08 06:50 28.15734 125.45878 32071 ft 453 kts 235°
2026-05-08 06:50 28.11753 125.40343 32078 ft 452 kts 235°
2026-05-08 06:51 28.07776 125.34822 32073 ft 452 kts 235°
2026-05-08 06:51 28.03796 125.29302 32077 ft 453 kts 235°
2026-05-08 06:52 27.99792 125.23755 32084 ft 455 kts 235°
2026-05-08 06:52 27.95808 125.18245 32078 ft 455 kts 235°
2026-05-08 06:53 27.91802 125.12712 32061 ft 454 kts 235°
2026-05-08 06:53 27.88465 125.08109 32056 ft 455 kts 235°
2026-05-08 06:54 27.84440 125.02560 32072 ft 456 kts 234°
2026-05-08 06:54 27.80404 124.97005 32075 ft 457 kts 235°
2026-05-08 06:55 27.76375 124.91467 32074 ft 457 kts 235°
2026-05-08 06:55 27.72341 124.85930 32076 ft 457 kts 235°
2026-05-08 06:56 27.68325 124.80423 32072 ft 458 kts 234°
2026-05-08 06:56 27.64244 124.74835 32076 ft 459 kts 234°
2026-05-08 06:57 27.60209 124.69316 32074 ft 458 kts 235°
2026-05-08 06:57 27.56159 124.63778 32071 ft 458 kts 235°
2026-05-08 06:58 27.52106 124.58238 32063 ft 458 kts 234°
2026-05-08 06:58 27.48045 124.52695 32075 ft 459 kts 234°
2026-05-08 06:59 27.43969 124.47141 32078 ft 460 kts 234°
2026-05-08 06:59 27.39900 124.41605 32071 ft 459 kts 235°
2026-05-08 07:00 27.35824 124.36065 32078 ft 459 kts 235°
2026-05-08 07:00 27.31775 124.30568 32077 ft 460 kts 235°
2026-05-08 07:01 27.27684 124.25021 32067 ft 460 kts 234°
2026-05-08 07:01 27.23584 124.19470 32070 ft 460 kts 235°
2026-05-08 07:02 27.19493 124.13939 32067 ft 460 kts 235°
2026-05-08 07:02 27.15402 124.08414 32063 ft 460 kts 234°
2026-05-08 07:03 27.11319 124.02905 32067 ft 462 kts 234°
2026-05-08 07:03 27.07188 123.97360 32069 ft 463 kts 234°
2026-05-08 07:04 27.03038 123.91845 32062 ft 462 kts 234°
2026-05-08 07:04 26.98888 123.86344 32040 ft 460 kts 234°
2026-05-08 07:05 26.94768 123.80884 32059 ft 462 kts 234°
2026-05-08 07:05 26.90603 123.75368 32059 ft 463 kts 234°
2026-05-08 07:06 26.86434 123.69854 32059 ft 463 kts 234°
2026-05-08 07:06 26.82268 123.64352 32056 ft 463 kts 234°
2026-05-08 07:07 26.78135 123.58900 32055 ft 462 kts 234°
2026-05-08 07:07 26.73970 123.53410 32048 ft 462 kts 234°
2026-05-08 07:08 26.69801 123.47923 32048 ft 462 kts 234°
2026-05-08 07:08 26.65635 123.42448 32056 ft 462 kts 234°
2026-05-08 07:09 26.61467 123.36976 32042 ft 462 kts 234°
2026-05-08 07:09 26.57310 123.31525 32056 ft 463 kts 234°
2026-05-08 07:10 26.53128 123.26050 32050 ft 464 kts 234°
2026-05-08 07:10 26.48934 123.20566 32052 ft 464 kts 234°
2026-05-08 07:11 26.44742 123.15091 32053 ft 464 kts 234°
2026-05-08 07:11 26.40553 123.09626 32047 ft 463 kts 233°
2026-05-08 07:12 26.36349 123.04147 32048 ft 465 kts 233°
2026-05-08 07:12 26.32164 122.98701 32048 ft 465 kts 233°
2026-05-08 07:13 26.27952 122.93229 32048 ft 465 kts 233°
2026-05-08 07:13 26.23730 122.87752 32051 ft 465 kts 234°
2026-05-08 07:14 26.19516 122.82292 32045 ft 465 kts 233°